DW0664 Weather Reports


Display with metric or nautical units.
time (UTC)temp
F
wind
direction
speed
MPH
gust
MPH
rain 1hr
in
rain 24hr
in
rain mn
in
humidity
%
barometer
mb
20260503040928 57 68 0.0 0.0 0.00 0.00 0.00 82 1022.9
20260503040426 58 67 0.0 0.0 0.00 0.00 0.00 82 1022.7
20260503035923 58 67 0.0 0.0 0.00 0.00 0.00 81 1022.7
20260503035420 58 67 0.0 0.0 0.00 0.00 0.00 81 1022.7
20260503034917 58 67 0.0 0.0 0.00 0.00 0.00 81 1022.6
20260503034415 58 67 0.0 0.0 0.00 0.00 0.00 81 1022.7
20260503033911 59 67 0.0 0.0 0.00 0.00 0.00 81 1022.7
20260503033409 59 67 0.0 0.0 0.00 0.00 0.00 81 1022.7
20260503032907 59 68 0.0 0.0 0.00 0.00 0.00 80 1022.7
20260503032405 59 68 0.0 0.0 0.00 0.00 0.00 80 1022.8
20260503031903 59 67 0.0 0.0 0.00 0.00 0.00 78 1022.6
20260503031400 59 67 0.0 0.0 0.00 0.00 0.00 76 1022.6
20260503030856 59 66 0.0 0.0 0.00 0.00 0.00 76 1022.3
20260503030353 59 67 0.0 0.0 0.00 0.00 0.00 75 1022.4
20260503025849 60 67 0.0 0.0 0.00 0.00 0.00 75 1022.4
20260503025347 60 67 0.0 0.0 0.00 0.00 0.00 72 1022.3
20260503024844 60 67 0.0 0.0 0.00 0.00 0.00 74 1022.3
20260503024341 60 67 0.0 0.0 0.00 0.00 0.00 72 1022.3
20260503023837 60 67 0.0 0.0 0.00 0.00 0.00 70 1022.3
20260503023335 61 67 0.0 0.0 0.00 0.00 0.00 71 1022.1
20260503022832 61 67 0.0 0.0 0.00 0.00 0.00 72 1022.1
20260503022332 61 67 0.0 0.0 0.00 0.00 0.00 70 1022.1
20260503021828 62 67 0.0 0.0 0.00 0.00 0.00 68 1022.1
20260503021325 62 68 0.0 0.0 0.00 0.00 0.00 66 1022.1
20260503020822 62 66 0.0 0.0 0.00 0.00 0.00 66 1022.0
20260503020320 62 67 0.0 0.0 0.00 0.00 0.00 67 1021.9
20260503015816 62 67 0.0 0.0 0.00 0.00 0.00 65 1021.7
20260503015313 62 66 0.0 0.0 0.00 0.00 0.00 63 1021.7
20260503014809 62 67 0.0 0.0 0.00 0.00 0.00 62 1021.9
20260503014307 63 68 0.0 0.0 0.00 0.00 0.00 62 1021.7
20260503013804 63 68 0.0 0.0 0.00 0.00 0.00 61 1021.8
20260503013301 64 68 0.0 0.0 0.00 0.00 0.00 60 1021.6
20260503012758 64 69 0.0 0.0 0.00 0.00 0.00 58 1021.6
20260503012255 65 68 0.0 0.0 0.00 0.00 0.00 58 1021.5
20260503011752 65 67 0.0 0.0 0.00 0.00 0.00 55 1021.5
20260503011249 66 68 0.0 0.0 0.00 0.00 0.00 54 1021.3
20260503010745 67 69 0.0 0.0 0.00 0.00 0.00 53 1021.2
20260503010242 68 68 0.0 0.0 0.00 0.00 0.00 52 1021.3
20260503005740 68 68 0.0 0.0 0.00 0.00 0.00 50 1021.3
20260503005237 69 67 0.0 0.0 0.00 0.00 0.00 49 1021.1
20260503004733 70 69 0.0 0.0 0.00 0.00 0.00 47 1021.1
20260503004231 71 69 0.0 0.0 0.00 0.00 0.00 47 1020.9
20260503003728 71 65 0.0 2.0 0.00 0.00 0.00 47 1021.1
20260503003225 71 74 0.0 1.0 0.00 0.00 0.00 46 1021.1
20260503002722 72 69 0.0 0.0 0.00 0.00 0.00 46 1021.0
20260503002219 72 70 0.0 0.0 0.00 0.00 0.00 46 1020.9
20260503001715 72 70 0.0 0.0 0.00 0.00 0.00 47 1021.0
20260503001212 73 67 0.0 1.0 0.00 0.00 0.00 45 1020.9
20260503000710 73 64 0.0 1.0 0.00 0.00 0.00 45 1020.9
20260503000207 73 65 0.0 1.0 0.00 0.00 0.00 45 1020.9
20260502235703 73 63 0.0 1.0 0.00 0.00 0.00 47 1020.9
20260502235201 73 68 0.0 0.0 0.00 0.00 0.00 46 1020.8
20260502234657 74 62 0.0 1.0 0.00 0.00 0.00 46 1020.7
20260502234154 74 67 0.0 1.0 0.00 0.00 0.00 45 1020.7
20260502233650 74 54 0.0 1.0 0.00 0.00 0.00 43 1020.7
20260502233147 74 68 0.0 2.0 0.00 0.00 0.00 45 1020.8
20260502232643 75 69 0.0 2.0 0.00 0.00 0.00 43 1020.6
20260502232141 76 48 0.0 1.0 0.00 0.00 0.00 45 1020.7
20260502231637 76 68 0.0 3.0 0.00 0.00 0.00 43 1020.5
20260502231135 77 86 1.0 1.0 0.00 0.00 0.00 40 1020.5
20260502230633 76 60 0.0 1.0 0.00 0.00 0.00 45 1020.5
20260502230131 75 44 0.0 1.0 0.00 0.00 0.00 43 1020.6
20260502225626 75 55 0.0 1.0 0.00 0.00 0.00 45 1020.7
20260502225125 74 60 0.0 1.0 0.00 0.00 0.00 47 1020.7
20260502224620 74 68 0.0 1.0 0.00 0.00 0.00 45 1021.0
20260502224117 75 71 0.0 2.0 0.00 0.00 0.00 45 1020.7
20260502223615 75 74 0.0 2.0 0.00 0.00 0.00 44 1020.8
20260502223113 77 58 0.0 2.0 0.00 0.00 0.00 44 1020.9
20260502222610 76 63 1.0 2.0 0.00 0.00 0.00 45 1020.8
20260502222106 77 61 0.0 1.0 0.00 0.00 0.00 48 1020.8
20260502221602 76 70 0.0 1.0 0.00 0.00 0.00 43 1020.8
20260502221100 77 60 0.0 1.0 0.00 0.00 0.00 47 1020.8
20260502220555 77 64 0.0 2.0 0.00 0.00 0.00 46 1020.8
20260502220052 77 72 1.0 1.0 0.00 0.00 0.00 46 1020.9
20260502215549 76 59 0.0 0.0 0.00 0.00 0.00 48 1021.0
20260502215046 75 51 2.0 2.0 0.00 0.00 0.00 45 1021.0
20260502214543 75 63 0.0 1.0 0.00 0.00 0.00 51 1021.0
20260502214041 76 77 0.0 1.0 0.00 0.00 0.00 48 1021.0
20260502213537 75 84 1.0 1.0 0.00 0.00 0.00 49 1021.2
20260502213035 75 68 0.0 2.0 0.00 0.00 0.00 46 1021.3
20260502212534 76 47 1.0 2.0 0.00 0.00 0.00 48 1021.2
20260502212031 76 59 1.0 1.0 0.00 0.00 0.00 44 1021.2
20260502211526 77 52 1.0 2.0 0.00 0.00 0.00 46 1021.2
20260502211024 77 64 1.0 3.0 0.00 0.00 0.00 48 1021.4
20260502210521 78 41 1.0 1.0 0.00 0.00 0.00 47 1021.4
20260502210018 77 65 0.0 1.0 0.00 0.00 0.00 46 1021.3
20260502205514 78 61 0.0 1.0 0.00 0.00 0.00 44 1021.5
20260502205011 78 63 0.0 1.0 0.00 0.00 0.00 48 1021.3
20260502204508 77 68 0.0 2.0 0.00 0.00 0.00 47 1021.4
20260502204006 77 54 0.0 2.0 0.00 0.00 0.00 45 1021.5
20260502203503 77 63 0.0 1.0 0.00 0.00 0.00 48 1021.6
20260502203000 76 62 0.0 1.0 0.00 0.00 0.00 48 1021.5
20260502202456 77 65 1.0 3.0 0.00 0.00 0.00 46 1021.5
20260502201955 77 76 2.0 2.0 0.00 0.00 0.00 48 1021.6
20260502201450 77 70 1.0 3.0 0.00 0.00 0.00 46 1021.5
20260502200947 77 53 1.0 1.0 0.00 0.00 0.00 50 1021.6
20260502200443 76 71 1.0 3.0 0.00 0.00 0.00 50 1021.6
20260502195940 77 60 1.0 3.0 0.00 0.00 0.00 47 1021.9
20260502195437 77 103 1.0 2.0 0.00 0.00 0.00 49 1021.8
20260502194934 76 70 2.0 3.0 0.00 0.00 0.00 50 1021.9
20260502194431 76 62 0.0 2.0 0.00 0.00 0.00 50 1021.8
20260502193926 76 60 1.0 2.0 0.00 0.00 0.00 49 1022.0
20260502193424 77 65 1.0 2.0 0.00 0.00 0.00 51 1022.0
20260502192919 76 64 0.0 2.0 0.00 0.00 0.00 53 1022.1
20260502192416 76 122 1.0 2.0 0.00 0.00 0.00 50 1022.3
20260502191913 76 59 2.0 6.0 0.00 0.00 0.00 52 1022.2
20260502191411 75 34 1.0 3.0 0.00 0.00 0.00 53 1022.1
20260502190909 75 67 0.0 2.0 0.00 0.00 0.00 51 1022.4
20260502190406 75 65 0.0 2.0 0.00 0.00 0.00 51 1022.4
20260502185902 74 45 0.0 2.0 0.00 0.00 0.00 55 1022.2
20260502185357 73 49 1.0 2.0 0.00 0.00 0.00 58 1022.3
20260502184855 73 59 1.0 3.0 0.00 0.00 0.00 55 1022.6
20260502184350 74 16 1.0 1.0 0.00 0.00 0.00 57 1022.6
20260502183847 74 347 1.0 2.0 0.00 0.00 0.00 57 1022.7
20260502183343 75 55 0.0 3.0 0.00 0.00 0.00 54 1022.7
20260502182838 76 81 0.0 1.0 0.00 0.00 0.00 56 1022.7
20260502182334 75 88 0.0 6.0 0.00 0.00 0.00 53 1022.8
20260502181830 75 55 0.0 1.0 0.00 0.00 0.00 58 1023.1
20260502181330 74 55 0.0 1.0 0.00 0.00 0.00 58 1023.2
20260502180827 74 34 1.0 1.0 0.00 0.00 0.00 56 1022.9
20260502180324 74 68 0.0 1.0 0.00 0.00 0.00 58 1023.1
20260502170243 71 83 1.0 3.0 0.00 0.00 0.00 62 1023.6
20260502164225 69 59 1.0 4.0 0.00 0.00 0.00 61 1023.8
20260502163720 69 54 2.0 2.0 0.00 0.00 0.00 60 1023.7
20260502163217 69 75 1.0 4.0 0.00 0.00 0.00 62 1023.8
20260502162714 69 68 1.0 3.0 0.00 0.00 0.00 62 1023.5
20260502162211 69 58 1.0 4.0 0.00 0.00 0.00 60 1023.5
20260502161708 69 61 0.0 6.0 0.00 0.00 0.00 60 1023.5
20260502161204 68 50 0.0 1.0 0.00 0.00 0.00 65 1023.5
20260502160702 68 33 1.0 2.0 0.00 0.00 0.00 64 1023.5
20260502160156 68 59 1.0 3.0 0.00 0.00 0.00 65 1023.6
20260502152114 66 99 1.0 2.0 0.00 0.00 0.00 71 1023.6
20260502151611 66 44 1.0 3.0 0.00 0.00 0.00 72 1023.4
20260502151109 66 122 2.0 2.0 0.00 0.00 0.00 72 1023.6
20260502150606 65 41 1.0 2.0 0.00 0.00 0.00 73 1023.5
20260502130451 53 62 0.0 0.0 0.00 0.00 0.00 99 1022.3
20260502123434 50 63 0.0 0.0 0.00 0.00 0.00 99 1021.8
20260502122926 50 63 0.0 0.0 0.00 0.00 0.00 99 1021.7
20260502122422 50 64 0.0 0.0 0.00 0.00 0.00 99 1021.5
20260502121920 50 64 0.0 0.0 0.00 0.00 0.00 99 1021.5
20260502121417 49 64 0.0 0.0 0.00 0.00 0.00 99 1021.5
20260502120915 49 64 0.0 0.0 0.00 0.00 0.00 99 1021.3
20260502120411 49 63 0.0 0.0 0.00 0.00 0.00 99 1021.1
20260502115908 49 64 0.0 0.0 0.00 0.00 0.00 99 1021.1
20260502115405 49 67 0.0 0.0 0.00 0.00 0.00 99 1021.0
20260502114901 49 66 0.0 0.0 0.00 0.00 0.00 99 1021.1
20260502114358 49 65 0.0 0.0 0.00 0.00 0.00 99 1020.9
20260502113855 49 66 0.0 0.0 0.00 0.00 0.00 99 1021.0
20260502113353 49 65 0.0 0.0 0.00 0.00 0.00 99 1020.9
20260502112851 49 64 0.0 0.0 0.00 0.00 0.00 99 1020.8
20260502112348 49 66 0.0 0.0 0.00 0.00 0.00 99 1020.7
20260502111845 49 65 0.0 0.0 0.00 0.00 0.00 99 1020.6
20260502111343 49 65 0.0 0.0 0.00 0.00 0.00 99 1020.6
20260502110840 49 64 0.0 0.0 0.00 0.00 0.00 99 1020.7
20260502110338 49 64 0.0 0.0 0.00 0.00 0.00 99 1020.5
20260502105835 49 67 0.0 0.0 0.00 0.00 0.00 99 1020.5
20260502105332 49 67 0.0 0.0 0.00 0.00 0.00 99 1020.4
20260502104829 50 68 0.0 0.0 0.00 0.00 0.00 99 1020.4
20260502104327 50 86 0.0 0.0 0.00 0.00 0.00 99 1020.2
20260502103824 50 66 0.0 0.0 0.00 0.00 0.00 99 1020.2
20260502103321 50 69 0.0 0.0 0.00 0.00 0.00 99 1020.0
20260502102819 50 62 0.0 0.0 0.00 0.00 0.00 99 1020.1
20260502102315 50 67 0.0 0.0 0.00 0.00 0.00 99 1020.1
20260502101813 50 63 0.0 0.0 0.00 0.00 0.00 99 1019.9
20260502101311 50 64 0.0 0.0 0.00 0.00 0.00 99 1020.0
20260502100809 50 64 0.0 0.0 0.00 0.00 0.00 99 1020.3
20260502100308 50 64 0.0 0.0 0.00 0.00 0.00 99 1019.9
20260502091241 50 58 0.0 1.0 0.00 0.00 0.00 99 1019.8
20260502090738 50 63 0.0 0.0 0.00 0.00 0.00 99 1019.7
20260502090235 50 68 0.0 0.0 0.00 0.00 0.00 99 1019.4
20260502071135 50 62 0.0 0.0 0.00 0.00 0.00 99 1019.2
20260502070633 50 63 0.0 0.0 0.00 0.00 0.00 99 1019.2
20260502070131 51 63 0.0 0.0 0.00 0.00 0.00 99 1019.2
20260502065629 51 62 0.0 0.0 0.00 0.00 0.00 99 1019.1
20260502065126 51 63 0.0 0.0 0.00 0.00 0.00 99 1019.4
20260502064625 51 62 0.0 0.0 0.00 0.00 0.00 99 1019.2
20260502064122 51 61 0.0 1.0 0.00 0.00 0.00 99 1019.3
20260502063619 51 63 0.0 0.0 0.00 0.00 0.00 99 1019.4
20260502063117 51 63 0.0 0.0 0.00 0.00 0.00 99 1019.4
20260502062614 51 64 0.0 0.0 0.00 0.00 0.00 99 1019.4
20260502062112 52 63 0.0 0.0 0.00 0.00 0.00 99 1019.3
20260502061610 52 61 0.0 0.0 0.00 0.00 0.00 99 1019.4
20260502061107 52 60 0.0 0.0 0.00 0.00 0.00 99 1019.0
20260502060602 52 58 0.0 1.0 0.00 0.00 0.00 99 1019.2
20260502060059 52 63 0.0 0.0 0.00 0.00 0.00 99 1019.2
20260502055556 52 66 0.0 0.0 0.00 0.00 0.00 99 1019.3
20260502055055 52 59 0.0 0.0 0.00 0.00 0.00 99 1019.3
20260502054553 52 66 0.0 0.0 0.00 0.00 0.00 99 1019.2
20260502054049 52 61 0.0 1.0 0.00 0.00 0.00 99 1019.1
20260502053547 52 71 0.0 1.0 0.00 0.00 0.00 99 1019.1
20260502053044 52 52 0.0 0.0 0.00 0.00 0.00 99 1019.2
20260502052543 52 39 0.0 1.0 0.00 0.00 0.00 99 1019.3
20260502052041 52 60 0.0 1.0 0.00 0.00 0.00 99 1019.2
20260502051538 52 58 0.0 0.0 0.00 0.00 0.00 99 1019.2
20260502051036 52 61 0.0 1.0 0.00 0.00 0.00 99 1019.3
20260502050532 52 65 0.0 2.0 0.00 0.00 0.00 99 1019.2
20260502050029 52 49 0.0 1.0 0.00 1.57 1.57 99 1019.0
20260502045526 52 72 0.0 1.0 0.00 1.57 1.57 99 1018.9
20260502045023 51 63 0.0 1.0 0.00 1.57 1.57 99 1019.0
20260502044519 51 63 0.0 0.0 0.00 1.57 1.57 99 1019.2
20260502044016 51 68 0.0 0.0 0.00 1.57 1.57 99 1019.0
20260502043514 51 37 1.0 2.0 0.00 1.57 1.57 99 1019.2
20260502043009 51 56 0.0 2.0 0.00 1.57 1.57 99 1018.9
20260502042505 51 59 0.0 1.0 0.00 1.57 1.57 99 1018.9
20260502042003 51 64 0.0 3.0 0.00 1.57 1.57 99 1019.0
20260502041500 51 72 0.0 2.0 0.00 1.57 1.57 99 1019.2